Content
SEND FEEDBACK

Daily
Averages
Monthly
Summary
Canada

VANCOUVER, BRITISH COLUMBIA


Home > North America > Canada > British Columbia
Elevation: 7 feet     Latitude: 49 11N     Longitude: 123 10W

WEATHER
 
SELECT A DAY
Number of Records: 249,842;   Date Range: 5/15/97 - 9/17/14
 
SHARE

PRINT THIS DATA

[ ← Previous Day ]
WEATHER ALMANAC - NOVEMBER 1, 2013
[ Next Day → ]
[ °C ]   °F
Weather ElementAverageHighLow
Temperature50.9 °F53.6 °F (12:15 pm)50 °F (12:35 am)
Dewpoint50 °F50 °F (12:35 am)50 °F (12:35 am)
Humidity96.9 %100 % (12:35 am)88 % (12:15 pm)
Barometer30.11 in30.24 in (12:55 am)29.79 in (11:35 pm)
Wind Speed4.8 mph10.4 mph (6:55 am)
Weather ElementAverage
Visibility8.8 mi
Wind DirectionESE (126.7 °)

Weather ElementTotal
Precipitation0.05 in
Heating Degree Days13.2 (Base 65)
Growing Degree Days1.8 (Base 50)
Averaged from 66 records on November 1, 2013
WEATHER CONDITIONS BREAKOUT
WIND DIRECTION BREAKOUT
WEATHER BY HOUR - NOVEMBER 1, 2013
[ °C ]   °F
Local TimeTemperatureDewpointHumidityBarometerVisibilityWind DirectionWind SpeedGust SpeedPrecipitationEventsConditions
12:35 AM50.0 °F50.0 °F100 %30.23 in10.0 miSouth (190°)6.9 mphMostly Cloudy
12:55 AM50.0 °F50.0 °F100 %30.24 in8.0 miSSW (200°)8.1 mphPartly Cloudy
1:15 AM50.0 °F50.0 °F100 %30.24 in9.0 miSouth (190°)4.6 mphPartly Cloudy
1:35 AM50.0 °F50.0 °F100 %30.24 in8.0 miSouth (180°)3.5 mphScattered Clouds
1:55 AM50.0 °F50.0 °F100 %30.24 in6.0 miSouth (190°)4.6 mphMostly Cloudy
2:15 AM50.0 °F50.0 °F100 %30.24 in6.0 miSSW (200°)9.2 mphOvercast
2:35 AM50.0 °F50.0 °F100 %30.24 in6.0 miSSW (200°)6.9 mphScattered Clouds
2:55 AM50.0 °F50.0 °F100 %30.24 in5.0 miSSW (200°)6.9 mphMostly Cloudy
3:15 AM50.0 °F50.0 °F100 %30.24 in7.0 miSSW (200°)4.6 mphOvercast
3:35 AM50.0 °F50.0 °F100 %30.24 in7.0 miSSW (210°)8.1 mphOvercast
3:55 AM50.0 °F50.0 °F100 %30.23 in10.0 miSSW (210°)4.6 mphMostly Cloudy
4:15 AM50.0 °F50.0 °F100 %30.23 in10.0 miSouth (190°)5.8 mphScattered Clouds
4:35 AM50.0 °F50.0 °F100 %30.23 in10.0 miSSW (200°)8.1 mphScattered Clouds
4:55 AM50.0 °F50.0 °F100 %30.23 in10.0 miSSW (200°)5.8 mphMostly Cloudy
5:15 AM50.0 °F50.0 °F100 %30.23 in10.0 miSSW (200°)6.9 mphOvercast
5:35 AM50.0 °F50.0 °F100 %30.23 in10.0 miSSW (210°)8.1 mphMostly Cloudy
5:55 AM50.0 °F50.0 °F100 %30.22 in10.0 miSSW (200°)9.2 mphOvercast
6:15 AM50.0 °F50.0 °F100 %30.22 in10.0 miSSW (200°)8.1 mphOvercast
6:35 AM50.0 °F50.0 °F100 %30.21 in10.0 miSouth (180°)5.8 mphRainLight Rain
6:55 AM50.0 °F50.0 °F100 %30.21 in10.0 miSSW (200°)10.4 mphOvercast
7:15 AM50.0 °F50.0 °F100 %30.21 in10.0 miSouth (190°)9.2 mphOvercast
7:35 AM50.0 °F50.0 °F100 %30.21 in10.0 miSouth (180°)8.1 mphOvercast
7:55 AM50.0 °F50.0 °F100 %30.21 in10.0 miSouth (190°)9.2 mphMostly Cloudy
8:15 AM50.0 °F50.0 °F100 %30.21 in10.0 miSouth (190°)10.4 mphMostly Cloudy
8:35 AM50.0 °F50.0 °F100 %30.21 in10.0 miSouth (190°)10.4 mphMostly Cloudy
8:55 AM50.0 °F50.0 °F100 %30.20 in8.0 miSouth (180°)8.1 mphRainLight Rain
9:15 AM50.0 °F50.0 °F100 %30.21 in10.0 miSouth (190°)10.4 mphScattered Clouds
9:35 AM50.0 °F50.0 °F100 %30.21 in10.0 miSouth (190°)8.1 mphOvercast
9:55 AM51.8 °F50.0 °F94 %30.21 in10.0 miSouth (190°)8.1 mphOvercast
10:15 AM51.8 °F50.0 °F94 %30.21 in10.0 miSouth (190°)6.9 mphOvercast
10:35 AM51.8 °F50.0 °F94 %30.21 in10.0 miSouth (190°)6.9 mphMostly Cloudy
10:55 AM51.8 °F50.0 °F94 %30.20 in10.0 miSSW (200°)5.8 mphOvercast
11:15 AM51.8 °F50.0 °F94 %30.21 in10.0 miSSW (210°)6.9 mphOvercast
11:35 AM51.8 °F50.0 °F94 %30.20 in10.0 miSouth (190°)5.8 mphOvercast
11:55 AM51.8 °F50.0 °F94 %30.20 in10.0 miSSW (200°)5.8 mphOvercast
12:15 PM53.6 °F50.0 °F88 %30.20 in10.0 miCalmOvercast
12:35 PM53.6 °F50.0 °F88 %30.19 in10.0 miCalmOvercast
12:55 PM53.6 °F50.0 °F88 %30.18 in10.0 miSouth (190°)3.5 mphOvercast
1:15 PM53.6 °F50.0 °F88 %30.17 in10.0 miCalmOvercast
3:15 PM53.6 °F50.0 °F88 %30.10 in10.0 miSSE (150°)3.5 mphScattered Clouds
3:35 PM53.6 °F50.0 °F88 %30.11 in10.0 miSSW (210°)5.8 mphPartly Cloudy
3:55 PM53.6 °F50.0 °F88 %30.09 in10.0 miCalmPartly Cloudy
4:15 PM53.6 °F50.0 °F88 %30.08 in10.0 miSouth (190°)4.6 mphClear
4:35 PM53.6 °F50.0 °F88 %30.07 in10.0 miNorthPartly Cloudy
4:55 PM51.8 °F50.0 °F94 %30.06 in10.0 miCalmPartly Cloudy
5:15 PM51.8 °F50.0 °F94 %30.04 in10.0 miCalmClear
5:35 PM51.8 °F50.0 °F94 %30.03 in10.0 miCalmPartly Cloudy
5:55 PM51.8 °F50.0 °F94 %30.02 in10.0 miCalmPartly Cloudy
6:15 PM51.8 °F50.0 °F94 %30.00 in10.0 miCalmClear
6:35 PM51.8 °F50.0 °F94 %29.99 in10.0 miCalmPartly Cloudy
6:55 PM51.8 °F50.0 °F94 %29.97 in10.0 miNE (40°)4.6 mphScattered Clouds
7:15 PM51.8 °F50.0 °F94 %29.95 in10.0 miCalmMostly Cloudy
7:35 PM51.8 °F50.0 °F94 %29.93 in8.0 miNE (50°)5.8 mphMostly Cloudy
7:55 PM50.0 °F50.0 °F100 %29.94 in7.0 miNE (50°)5.8 mphScattered Clouds
8:15 PM50.0 °F50.0 °F100 %29.91 in7.0 miENE (60°)5.8 mphPartly Cloudy
8:35 PM50.0 °F50.0 °F100 %29.91 in6.0 miEast (80°)3.5 mphScattered Clouds
8:55 PM50.0 °F50.0 °F100 %29.90 in6.0 miCalmPartly Cloudy
9:15 PM50.0 °F50.0 °F100 %29.90 in6.0 miCalmRainLight Rain
9:35 PM50.0 °F50.0 °F100 %29.89 in5.0 miNorth (360°)4.6 mphRainLight Rain
9:55 PM50.0 °F50.0 °F100 %29.88 in6.0 miCalmRainLight Rain
10:15 PM50.0 °F50.0 °F100 %29.86 in4.0 miCalm0.01 inRainLight Rain
10:35 PM50.0 °F50.0 °F100 %29.84 in5.0 miENE (60°)5.8 mph0.02 inRainLight Rain
10:55 PM50.0 °F50.0 °F100 %29.84 in9.0 miCalm0.02 inRainLight Rain
11:15 PM50.0 °F50.0 °F100 %29.81 in5.0 miCalmRainLight Rain
11:35 PM50.0 °F50.0 °F100 %29.79 in9.0 miEast (100°)3.5 mphRainLight Rain
11:55 PM50.0 °F50.0 °F100 %29.80 in6.0 miCalmScattered Clouds
Hourly data recorded from CZBB, located miles away from Vancouver, British Columbia







STORIES FROM OUR PARTNERS